SCP
0 0 0 0 0 0 0 0 -0 -0 -0 -0 -0 -0 -0 -0 -0 -0 -0 0 0 0 0 0 0 0 0 0 0 0 -0 0 -0 0 0 0 0 0 0 -0 0 -0 -0 -0 0
0 0 0 0 0 0 0 0 0 0 -0 -0 -0 -0 -0 -0 0 -0 0 -0 -0 0 0 -0 0 0 0 0 -0 -0 0 0 0 0 0 0 0 0 0 0 0 0 0 0 0
0 0 0 0 0 0 0 0 0 0 0 -0 -0 -0 -0 0 0 0 -0 -0 -0 0 0 0 -0 -0 -0 -0 -0 -0 0 0 0 0 0 0 0 0 0 0 0 0 0 0 0
0 0 0 0 0 0 0 0 0 0 0 -0 -0 -0 -0 0 0 0 -0 -0 -0 0 0 -0 -0 -0 -0 -0 -0 0 0 0 0 0 0 0 0 0 0 0 0 0 0 0 0
0 0 0 0 0 0 0 0 0 0 0 0 0 -0 0 0 0 0 -0 -0 0 0 0 -0 -0 -0 -0 0 0 0 0 0 0 0 0 0 0 0 0 0 0 0 0 0 0
0 0 0 0 0 0 0 0 0 0 0 0 0 0 0 0 0 0 0 0 0 0 0 0 -0 -0 0 0 -0 0 -0 -0 -0 -0 -0 -0 0 0 0 0 0 0 0 0 0
0 0 0 0 0 0 0 0 0 0 0 0 0 0 0 0 0 0 0 0 0 0 0 0 0 0 0 0 0 -0 -0 -0 -0 0 0 0 0 0 0 0 0 0 0 0 0
0 0 0 0 0 0 0 0 0 0 0 0 0 0 0 0 0 0 0 0 0 0 0 0 0 0 0 0 0 0 0 0 0 0 0 0 0 0 0 0 0 0 0 0 0
0 0 0 0 0 0 0 0 0 0 0 0 0 0 0 0 0 0 0 0 0 0 0 0 0 0 0 0 0 0 0 0 0 0 0 0 0 0 0 0 0 0 0 0 0
0 0 0 0 0 0 0 0 0 0 0 0 0 0 0 0 0 0 0 0 0 0 0 0 0 0 0 0 0 0 0 0 0 0 0 0 0 0 0 0 0 0 0 0 0
0 0 0 0 0 0 0 0 0 0 0 0 0 0 0 0 0 0 0 0 0 0 0 0 0 0 0 0 0 0 0 0 0 0 0 0 0 0 0 0 0 0 0 0 0
0 0 0 0 0 0 0 0 0 0 0 0 0 0 0 0 0 0 0 0 0 0 0 0 0 0 0 0 0 0 0 0 0 0 0 0 0 0 0 0 0 0 0 0 0
0 0 0 0 0 0 0 0 0 0 0 0 0 0 0 0 0 0 0 0 0 0 0 0 0 0 0 0 0 0 0 0 0 0 0 0 0 0 0 0 0 0 0 0 0
0 0 0 0 0 0 0 0 0 0 0 0 0 0 0 0 0 0 0 0 0 0 0 0 0 0 0 0 0 0 0 0 0 0 0 0 0 0 0 0 0 0 0 0 0
0 0 0 0 0 0 0 0 0 0 0 0 0 0 0 0 0 0 0 0 0 0 0 0 0 0 0 0 0 0 0 0 0 0 0 0 0 0 0 0 0 0 0 0 0
0 0 0 0 0 0 0 0 0 0 0 0 0 0 0 0 0 0 0 0 0 0 0 0 0 0 0 0 0 0 0 0 0 0 0 0 0 0 0 0 0 0 0 0 0
0 0 0 0 0 0 0 0 0 0 0 0 0 0 0 0 0 0 0 0 0 0 0 0 0 0 0 0 0 0 0 0 0 0 0 0 0 0 0 0 0 0 0 0 0
0 0 0 0 0 0 0 0 0 0 0 0 0 0 0 0 0 0 0 0 0 0 0 0 0 0 0 0 0 0 0 0 0 0 0 0 0 0 0 0 0 0 0 0 0
0 0 0 0 0 0 0 0 0 0 0 0 0 0 0 0 0 0 0 0 0 0 0 0 0 0 0 0 0 0 0 0 0 0 0 0 0 0 0 0 0 0 0 0 0
0 0 0 0 0 0 0 0 0 0 0 0 0 0 0 0 0 0 0 0 0 0 0 0 0 0 0 0 0 0 0 0 0 0 0 0 0 0 0 0 0 0 0 0 0
0 0 0 0 0 0 0 0 0 0 0 0 0 0 0 0 0 0 0 0 0 0 0 0 0 0 0 0 0 0 0 0 0 0 0 0 0 0 0 0 0 0 0 0 0
0 0 0 0 0 0 0 0 0 0 0 0 0 0 0 0 0 0 0 0 0 0 0 0 0 0 0 0 0 0 0 0 0 0 0 0 0 0 0 0 0 0 0 0 0
0 0 0 0 0 0 0 0 0 0 0 0 0 0 0 0 0 0 0 0 0 0 0 0 0 0 0 0 0 0 0 0 0 0 0 0 0 0 0 0 0 0 0 0 0
0 0 0 0 0 0 0 0 0 0 0 0 0 0 0 0 0 0 0 0 0 0 0 0 0 0 0 0 0 0 0 0 0 0 0 0 0 0 0 0 0 0 0 0 0
0 0 0 0 0 0 0 0 0 0 0 0 0 0 0 0 0 0 0 0 0 0 0 0 0 0 0 0 0 0 0 0 0 0 0 0 0 0 0 0 0 0 0 0 0
0 0 0 0 0 0 0 0 0 0 0 0 0 0 0 0 0 0 0 0 0 0 0 0 0 0 0 0 0 0 0 0 0 0 0 0 0 0 0 0 0 0 0 0 0
0 0 0 0 0 0 0 0 0 0 0 0 0 0 0 0 0 0 0 0 0 0 0 0 0 0 0 0 0 0 0 0 0 0 0 0 0 0 0 0 0 0 0 0 0
Wind_Speed_500mb
14 15 15 16 18 19 21 23 25 23 19 16 13 6 4 13 22 6 8 9 10 14 13 13 18 16 16 20 19 8 10 7 12 12 10 7 6 5 15 25 28 13 13 19 35
13 15 18 18 20 19 20 23 25 23 19 15 13 6 3 5 9 20 12 11 9 11 11 12 14 9 13 12 14 15 9 8 6 11 8 10 11 15 9 13 13 11 13 24 37
15 15 16 20 19 20 20 22 23 22 19 15 12 9 4 4 4 15 11 5 7 11 11 14 14 11 14 15 17 10 8 10 5 30 32 18 12 7 24 9 6 8 21 34 44
17 18 17 19 19 20 18 19 20 19 18 17 12 8 5 3 2 9 10 3 8 11 11 11 9 9 12 10 9 14 9 7 16 16 10 9 12 13 10 10 11 12 22 34 47
19 20 20 18 20 19 20 18 19 19 17 16 14 7 3 4 8 8 9 6 9 10 9 10 9 13 12 13 12 14 9 15 17 18 13 17 13 15 20 17 10 12 27 41 49
20 22 21 21 19 19 19 19 19 18 17 15 12 8 1 4 6 7 10 8 10 9 9 7 15 34 28 12 11 14 25 19 13 15 20 16 10 7 11 8 7 20 33 41 49
21 22 22 21 20 19 18 17 17 17 14 12 11 7 3 8 4 7 10 10 13 18 34 38 26 7 20 13 25 24 12 9 10 3 5 14 5 7 12 5 13 25 32 40 49
21 21 21 21 21 20 18 16 13 14 12 10 7 4 4 8 7 7 11 16 20 26 26 29 30 34 15 38 11 10 9 7 6 2 2 8 6 4 5 2 17 27 34 43 51
25 20 19 19 20 20 18 14 8 9 8 8 5 1 3 6 6 9 11 16 20 21 23 19 11 18 15 12 9 11 6 5 2 3 1 4 2 4 6 8 19 28 37 47 56
32 22 17 16 18 18 17 13 9 8 6 5 3 2 2 1 4 7 13 16 9 17 13 7 11 9 7 7 9 11 8 3 6 4 3 3 4 6 7 12 18 28 39 49 59
28 31 21 22 18 19 14 10 7 5 0 4 2 3 1 3 6 5 12 13 16 8 7 10 11 5 10 5 7 14 10 8 2 2 1 6 5 12 8 10 18 31 41 50 59
29 31 25 20 18 17 16 7 6 3 5 2 6 3 3 6 4 5 12 6 6 5 3 12 5 4 8 8 11 10 9 3 3 5 2 4 10 9 12 3 14 25 35 46 59
34 29 27 16 19 14 10 3 1 5 6 5 8 7 7 6 5 3 7 9 10 7 7 9 6 6 7 5 10 6 10 7 3 4 4 7 9 9 6 7 8 20 29 41 49
42 34 28 18 16 12 6 4 5 5 7 7 6 6 7 11 5 6 9 5 10 9 8 10 0 5 8 6 3 7 5 10 8 6 5 5 9 10 10 9 0 18 31 43 51
47 38 32 26 6 8 8 12 11 11 5 6 4 4 7 6 12 7 7 5 10 9 8 8 8 7 6 4 3 6 4 8 6 8 6 0 5 7 4 9 5 12 26 35 41
54 45 39 30 21 9 17 17 13 7 14 1 2 5 7 5 4 7 5 11 15 10 12 5 3 4 6 6 7 16 9 10 8 5 3 5 9 8 9 11 7 5 20 29 38
59 54 47 32 23 19 21 14 6 7 6 5 5 5 4 5 5 2 5 5 7 10 1 7 2 2 8 12 8 5 8 4 9 5 9 8 4 12 11 9 9 9 11 21 31
66 62 55 49 34 32 28 9 10 5 9 3 6 8 6 9 4 1 10 6 8 7 6 11 7 13 6 4 10 9 4 8 13 6 5 4 11 7 8 18 15 11 10 17 26
81 66 56 50 49 48 35 7 12 12 12 16 7 6 5 4 8 6 12 10 15 20 12 9 1 2 2 2 2 9 8 4 12 5 6 6 9 4 8 8 14 12 10 14 22
73 70 53 50 56 51 12 10 9 4 9 5 14 9 15 12 8 7 15 7 10 12 1 12 7 3 0 2 3 5 7 6 4 4 8 8 10 9 21 20 14 16 18 17 19
76 39 41 59 58 39 11 14 11 14 11 12 12 9 8 14 14 10 11 3 6 10 4 9 7 2 2 13 16 6 5 4 3 7 8 3 10 5 27 26 26 33 29 25 23
62 7 55 67 20 13 10 14 7 7 13 6 3 4 13 15 12 7 17 5 22 26 16 9 8 8 9 3 5 5 12 12 7 10 6 3 11 8 15 33 45 44 37 31 26
31 19 47 79 13 14 3 4 6 9 9 12 13 9 4 12 6 11 8 3 16 12 14 13 3 5 6 4 4 10 11 8 7 4 12 10 8 6 17 28 45 48 42 38 33
28 10 16 41 23 17 18 11 14 15 7 12 8 11 8 5 2 10 7 2 8 11 8 9 5 9 13 7 9 10 12 17 10 7 8 12 5 11 15 20 35 47 47 45 39
24 12 26 14 27 16 23 24 28 18 12 19 7 10 15 9 5 9 6 5 4 12 6 6 10 7 4 4 6 8 8 21 32 29 15 7 22 23 36 38 57 63 54 50 47
16 13 22 4 31 29 31 27 43 31 21 16 12 29 17 16 15 18 14 10 11 7 13 4 4 5 5 4 8 10 17 17 28 33 27 26 25 15 41 43 44 64 65 62 57
45 28 19 25 27 31 30 39 44 30 25 17 34 13 16 14 14 9 12 21 20 18 11 13 11 6 10 5 6 15 32 37 21 22 36 34 39 12 19 48 64 75 80 76 67
Wind_Direction_500mb
298 298 306 313 321 332 338 341 345 350 353 356 0 23 19 47 48 59 54 51 93 100 99 111 123 109 98 67 57 68 68 134 170 151 159 172 116 82 82 87 75 83 58 0 342
302 304 305 309 317 326 334 336 341 344 347 355 356 3 306 24 54 56 44 45 97 111 107 127 139 129 72 43 28 60 84 162 166 151 140 129 131 136 103 87 66 63 26 354 350
307 303 304 304 313 319 328 332 336 338 345 351 352 357 298 338 36 21 27 50 119 132 115 117 130 104 71 44 24 42 125 163 113 118 103 97 98 111 122 57 73 36 4 356 357
313 305 304 304 306 312 319 324 328 331 345 350 350 2 356 14 159 3 17 83 131 140 132 123 128 77 66 63 56 94 90 96 140 160 118 123 105 83 89 113 94 53 8 358 359
318 313 307 304 302 308 313 319 321 323 322 341 349 350 12 96 62 25 34 96 125 130 139 138 134 110 95 99 79 78 129 97 132 148 132 127 103 119 106 118 93 32 8 4 359
319 316 310 304 300 304 309 313 317 317 318 317 340 347 15 98 48 45 47 71 140 132 134 148 120 113 91 65 64 109 108 111 109 111 128 120 137 121 151 128 67 15 11 5 359
315 317 313 307 302 300 304 308 315 312 317 313 328 346 73 142 103 76 76 84 117 114 113 110 114 119 109 99 107 104 76 47 33 74 120 138 88 90 144 133 30 18 8 1 1
305 316 315 311 306 302 301 305 317 311 319 315 319 337 115 149 118 99 102 100 106 122 121 102 106 98 90 119 69 69 59 99 301 40 72 134 240 120 123 165 30 13 5 358 1
289 302 314 316 311 307 304 306 318 309 323 322 306 285 100 139 137 119 125 127 126 119 106 110 93 85 109 96 53 16 165 138 247 9 299 131 215 124 88 65 32 11 3 1 359
284 290 310 323 319 313 312 306 296 308 306 307 297 279 116 172 126 124 134 132 127 132 110 76 70 81 46 79 201 189 158 146 171 203 146 194 174 144 99 55 29 11 5 3 2
276 279 285 299 309 320 318 321 298 281 358 102 16 96 59 146 139 134 155 133 129 91 62 33 73 170 176 142 120 123 114 124 80 25 33 235 221 197 158 48 23 15 7 4 3
261 273 278 285 294 289 313 326 323 245 326 220 212 186 195 151 120 132 159 146 110 93 342 30 106 148 96 72 97 94 108 108 43 35 74 338 268 181 185 101 33 12 8 7 3
253 257 272 278 273 277 289 303 15 343 268 239 205 187 189 177 127 132 157 130 95 84 18 139 158 153 121 107 103 49 130 164 138 343 68 351 279 177 196 155 38 21 16 16 14
246 251 246 262 289 257 243 159 93 105 42 220 207 206 178 151 71 111 119 132 49 134 115 81 159 124 92 93 85 146 141 120 109 82 217 48 278 219 207 213 172 10 21 18 12
237 239 238 220 223 227 190 141 101 83 281 35 127 156 136 137 133 62 96 97 115 120 121 200 135 124 106 85 355 159 137 109 105 96 55 62 81 261 119 226 235 359 23 23 19
232 229 228 215 210 230 171 133 94 63 246 287 75 148 96 38 71 102 102 86 111 88 41 75 56 46 115 78 89 144 82 51 56 91 15 182 136 265 186 192 161 39 33 26 24
234 229 221 200 192 171 163 128 64 206 0 254 171 171 93 134 85 73 110 76 153 96 137 15 25 13 137 87 20 87 105 339 348 14 224 152 88 254 181 168 143 126 63 43 35
243 226 212 200 179 166 160 53 208 219 210 100 101 107 199 153 359 107 117 176 233 101 124 147 279 174 183 204 172 179 176 167 211 205 269 150 235 270 159 143 138 120 94 68 54
242 212 207 200 175 170 156 196 213 214 153 148 59 121 223 232 148 147 194 206 193 179 173 130 272 8 87 123 114 182 196 137 105 39 46 225 277 170 139 154 170 161 137 101 76
230 195 195 185 174 167 151 247 243 210 127 137 167 175 176 193 164 196 175 204 185 179 105 186 99 334 300 117 67 151 155 84 7 159 257 264 268 230 196 199 194 192 178 147 107
206 175 190 173 175 161 193 223 247 222 183 170 193 166 190 175 175 199 189 234 143 145 138 146 109 303 108 206 181 147 193 179 153 177 178 250 256 205 193 183 185 193 181 162 136
197 186 170 172 166 181 200 183 193 210 180 243 204 186 186 165 172 229 202 223 168 147 160 183 107 169 194 274 190 190 191 170 147 210 228 153 270 333 176 172 180 183 178 169 155
192 133 172 168 195 207 144 186 181 161 199 188 216 210 178 169 201 186 183 344 165 167 154 179 219 69 354 20 346 219 200 172 125 91 202 155 254 19 127 154 184 179 180 177 173
183 141 153 194 224 212 166 193 200 203 239 198 193 137 131 142 271 174 142 189 173 179 138 134 163 179 195 170 126 201 194 184 166 168 171 223 192 221 201 186 187 191 186 183 184
206 209 173 189 215 218 179 162 193 199 206 207 242 216 163 145 119 199 152 136 32 166 109 151 196 178 239 188 208 213 182 189 209 216 198 214 220 189 200 197 194 191 189 187 190
213 164 185 222 171 177 190 201 190 185 157 221 205 193 186 164 177 189 152 197 185 170 155 126 190 102 298 319 245 260 236 207 220 234 248 257 267 197 206 190 186 194 193 194 193
243 221 182 173 176 174 200 204 199 159 200 208 193 155 199 200 143 278 209 172 154 148 155 145 132 100 264 328 314 282 219 206 204 205 210 222 231 148 174 185 196 194 197 198 194
Wind_Speed_850mb
14 15 15 16 18 19 21 23 25 23 19 16 13 6 4 13 22 6 8 9 10 14 13 13 18 16 16 20 19 8 10 7 12 12 10 7 6 5 15 25 28 13 13 19 35
13 15 18 18 20 19 20 23 25 23 19 15 13 6 3 5 9 20 12 11 9 11 11 12 14 9 13 12 14 15 9 8 6 11 8 10 11 15 9 13 13 11 13 24 37
15 15 16 20 19 20 20 22 23 22 19 15 12 9 4 4 4 15 11 5 7 11 11 14 14 11 14 15 17 10 8 10 5 30 32 18 12 7 24 9 6 8 21 34 44
17 18 17 19 19 20 18 19 20 19 18 17 12 8 5 3 2 9 10 3 8 11 11 11 9 9 12 10 9 14 9 7 16 16 10 9 12 13 10 10 11 12 22 34 47
19 20 20 18 20 19 20 18 19 19 17 16 14 7 3 4 8 8 9 6 9 10 9 10 9 13 12 13 12 14 9 15 17 18 13 17 13 15 20 17 10 12 27 41 49
20 22 21 21 19 19 19 19 19 18 17 15 12 8 1 4 6 7 10 8 10 9 9 7 15 34 28 12 11 14 25 19 13 15 20 16 10 7 11 8 7 20 33 41 49
21 22 22 21 20 19 18 17 17 17 14 12 11 7 3 8 4 7 10 10 13 18 34 38 26 7 20 13 25 24 12 9 10 3 5 14 5 7 12 5 13 25 32 40 49
21 21 21 21 21 20 18 16 13 14 12 10 7 4 4 8 7 7 11 16 20 26 26 29 30 34 15 38 11 10 9 7 6 2 2 8 6 4 5 2 17 27 34 43 51
25 20 19 19 20 20 18 14 8 9 8 8 5 1 3 6 6 9 11 16 20 21 23 19 11 18 15 12 9 11 6 5 2 3 1 4 2 4 6 8 19 28 37 47 56
32 22 17 16 18 18 17 13 9 8 6 5 3 2 2 1 4 7 13 16 9 17 13 7 11 9 7 7 9 11 8 3 6 4 3 3 4 6 7 12 18 28 39 49 59
28 31 21 22 18 19 14 10 7 5 0 4 2 3 1 3 6 5 12 13 16 8 7 10 11 5 10 5 7 14 10 8 2 2 1 6 5 12 8 10 18 31 41 50 59
29 31 25 20 18 17 16 7 6 3 5 2 6 3 3 6 4 5 12 6 6 5 3 12 5 4 8 8 11 10 9 3 3 5 2 4 10 9 12 3 14 25 35 46 59
34 29 27 16 19 14 10 3 1 5 6 5 8 7 7 6 5 3 7 9 10 7 7 9 6 6 7 5 10 6 10 7 3 4 4 7 9 9 6 7 8 20 29 41 49
42 34 28 18 16 12 6 4 5 5 7 7 6 6 7 11 5 6 9 5 10 9 8 10 0 5 8 6 3 7 5 10 8 6 5 5 9 10 10 9 0 18 31 43 51
47 38 32 26 6 8 8 12 11 11 5 6 4 4 7 6 12 7 7 5 10 9 8 8 8 7 6 4 3 6 4 8 6 8 6 0 5 7 4 9 5 12 26 35 41
54 45 39 30 21 9 17 17 13 7 14 1 2 5 7 5 4 7 5 11 15 10 12 5 3 4 6 6 7 16 9 10 8 5 3 5 9 8 9 11 7 5 20 29 38
59 54 47 32 23 19 21 14 6 7 6 5 5 5 4 5 5 2 5 5 7 10 1 7 2 2 8 12 8 5 8 4 9 5 9 8 4 12 11 9 9 9 11 21 31
66 62 55 49 34 32 28 9 10 5 9 3 6 8 6 9 4 1 10 6 8 7 6 11 7 13 6 4 10 9 4 8 13 6 5 4 11 7 8 18 15 11 10 17 26
81 66 56 50 49 48 35 7 12 12 12 16 7 6 5 4 8 6 12 10 15 20 12 9 1 2 2 2 2 9 8 4 12 5 6 6 9 4 8 8 14 12 10 14 22
73 70 53 50 56 51 12 10 9 4 9 5 14 9 15 12 8 7 15 7 10 12 1 12 7 3 0 2 3 5 7 6 4 4 8 8 10 9 21 20 14 16 18 17 19
76 39 41 59 58 39 11 14 11 14 11 12 12 9 8 14 14 10 11 3 6 10 4 9 7 2 2 13 16 6 5 4 3 7 8 3 10 5 27 26 26 33 29 25 23
62 7 55 67 20 13 10 14 7 7 13 6 3 4 13 15 12 7 17 5 22 26 16 9 8 8 9 3 5 5 12 12 7 10 6 3 11 8 15 33 45 44 37 31 26
31 19 47 79 13 14 3 4 6 9 9 12 13 9 4 12 6 11 8 3 16 12 14 13 3 5 6 4 4 10 11 8 7 4 12 10 8 6 17 28 45 48 42 38 33
28 10 16 41 23 17 18 11 14 15 7 12 8 11 8 5 2 10 7 2 8 11 8 9 5 9 13 7 9 10 12 17 10 7 8 12 5 11 15 20 35 47 47 45 39
24 12 26 14 27 16 23 24 28 18 12 19 7 10 15 9 5 9 6 5 4 12 6 6 10 7 4 4 6 8 8 21 32 29 15 7 22 23 36 38 57 63 54 50 47
16 13 22 4 31 29 31 27 43 31 21 16 12 29 17 16 15 18 14 10 11 7 13 4 4 5 5 4 8 10 17 17 28 33 27 26 25 15 41 43 44 64 65 62 57
45 28 19 25 27 31 30 39 44 30 25 17 34 13 16 14 14 9 12 21 20 18 11 13 11 6 10 5 6 15 32 37 21 22 36 34 39 12 19 48 64 75 80 76 67
Wind_Direction_850mb
298 298 306 313 321 332 338 341 345 350 353 356 0 23 19 47 48 59 54 51 93 100 99 111 123 109 98 67 57 68 68 134 170 151 159 172 116 82 82 87 75 83 58 0 342
302 304 305 309 317 326 334 336 341 344 347 355 356 3 306 24 54 56 44 45 97 111 107 127 139 129 72 43 28 60 84 162 166 151 140 129 131 136 103 87 66 63 26 354 350
307 303 304 304 313 319 328 332 336 338 345 351 352 357 298 338 36 21 27 50 119 132 115 117 130 104 71 44 24 42 125 163 113 118 103 97 98 111 122 57 73 36 4 356 357
313 305 304 304 306 312 319 324 328 331 345 350 350 2 356 14 159 3 17 83 131 140 132 123 128 77 66 63 56 94 90 96 140 160 118 123 105 83 89 113 94 53 8 358 359
318 313 307 304 302 308 313 319 321 323 322 341 349 350 12 96 62 25 34 96 125 130 139 138 134 110 95 99 79 78 129 97 132 148 132 127 103 119 106 118 93 32 8 4 359
319 316 310 304 300 304 309 313 317 317 318 317 340 347 15 98 48 45 47 71 140 132 134 148 120 113 91 65 64 109 108 111 109 111 128 120 137 121 151 128 67 15 11 5 359
315 317 313 307 302 300 304 308 315 312 317 313 328 346 73 142 103 76 76 84 117 114 113 110 114 119 109 99 107 104 76 47 33 74 120 138 88 90 144 133 30 18 8 1 1
305 316 315 311 306 302 301 305 317 311 319 315 319 337 115 149 118 99 102 100 106 122 121 102 106 98 90 119 69 69 59 99 301 40 72 134 240 120 123 165 30 13 5 358 1
289 302 314 316 311 307 304 306 318 309 323 322 306 285 100 139 137 119 125 127 126 119 106 110 93 85 109 96 53 16 165 138 247 9 299 131 215 124 88 65 32 11 3 1 359
284 290 310 323 319 313 312 306 296 308 306 307 297 279 116 172 126 124 134 132 127 132 110 76 70 81 46 79 201 189 158 146 171 203 146 194 174 144 99 55 29 11 5 3 2
276 279 285 299 309 320 318 321 298 281 358 102 16 96 59 146 139 134 155 133 129 91 62 33 73 170 176 142 120 123 114 124 80 25 33 235 221 197 158 48 23 15 7 4 3
261 273 278 285 294 289 313 326 323 245 326 220 212 186 195 151 120 132 159 146 110 93 342 30 106 148 96 72 97 94 108 108 43 35 74 338 268 181 185 101 33 12 8 7 3
253 257 272 278 273 277 289 303 15 343 268 239 205 187 189 177 127 132 157 130 95 84 18 139 158 153 121 107 103 49 130 164 138 343 68 351 279 177 196 155 38 21 16 16 14
246 251 246 262 289 257 243 159 93 105 42 220 207 206 178 151 71 111 119 132 49 134 115 81 159 124 92 93 85 146 141 120 109 82 217 48 278 219 207 213 172 10 21 18 12
237 239 238 220 223 227 190 141 101 83 281 35 127 156 136 137 133 62 96 97 115 120 121 200 135 124 106 85 355 159 137 109 105 96 55 62 81 261 119 226 235 359 23 23 19
232 229 228 215 210 230 171 133 94 63 246 287 75 148 96 38 71 102 102 86 111 88 41 75 56 46 115 78 89 144 82 51 56 91 15 182 136 265 186 192 161 39 33 26 24
234 229 221 200 192 171 163 128 64 206 0 254 171 171 93 134 85 73 110 76 153 96 137 15 25 13 137 87 20 87 105 339 348 14 224 152 88 254 181 168 143 126 63 43 35
243 226 212 200 179 166 160 53 208 219 210 100 101 107 199 153 359 107 117 176 233 101 124 147 279 174 183 204 172 179 176 167 211 205 269 150 235 270 159 143 138 120 94 68 54
242 212 207 200 175 170 156 196 213 214 153 148 59 121 223 232 148 147 194 206 193 179 173 130 272 8 87 123 114 182 196 137 105 39 46 225 277 170 139 154 170 161 137 101 76
230 195 195 185 174 167 151 247 243 210 127 137 167 175 176 193 164 196 175 204 185 179 105 186 99 334 300 117 67 151 155 84 7 159 257 264 268 230 196 199 194 192 178 147 107
206 175 190 173 175 161 193 223 247 222 183 170 193 166 190 175 175 199 189 234 143 145 138 146 109 303 108 206 181 147 193 179 153 177 178 250 256 205 193 183 185 193 181 162 136
197 186 170 172 166 181 200 183 193 210 180 243 204 186 186 165 172 229 202 223 168 147 160 183 107 169 194 274 190 190 191 170 147 210 228 153 270 333 176 172 180 183 178 169 155
192 133 172 168 195 207 144 186 181 161 199 188 216 210 178 169 201 186 183 344 165 167 154 179 219 69 354 20 346 219 200 172 125 91 202 155 254 19 127 154 184 179 180 177 173
183 141 153 194 224 212 166 193 200 203 239 198 193 137 131 142 271 174 142 189 173 179 138 134 163 179 195 170 126 201 194 184 166 168 171 223 192 221 201 186 187 191 186 183 184
206 209 173 189 215 218 179 162 193 199 206 207 242 216 163 145 119 199 152 136 32 166 109 151 196 178 239 188 208 213 182 189 209 216 198 214 220 189 200 197 194 191 189 187 190
213 164 185 222 171 177 190 201 190 185 157 221 205 193 186 164 177 189 152 197 185 170 155 126 190 102 298 319 245 260 236 207 220 234 248 257 267 197 206 190 186 194 193 194 193
243 221 182 173 176 174 200 204 199 159 200 208 193 155 199 200 143 278 209 172 154 148 155 145 132 100 264 328 314 282 219 206 204 205 210 222 231 148 174 185 196 194 197 198 194